When you browse on this site, cookies collect data to enhance your experience and personalize the content and advertising you see.
Visit our Privacy Policy to learn more. By continuing to use the site, you agree to this use of cookies and data.
  • In Hungary
  • List of Countries
  • For 7 days
  • Water Temperature
  • Satellite Maps
  • Weather Map
  • News
  • Weather Widgets
  • user-avatar
    Login

    Hourly Weather Santa Cruz

    Today, 23 January, Wednesday

    Time Temperature Precipitation Wind Pressure Humidity
    00:00 +26°C° 0 mm 4 mps 723 mmHg 79%
    01:00 +26°C° 0 mm 4 mps 723 mmHg 81%
    02:00 +25°C° 0 mm 4 mps 723 mmHg 83%
    03:00 +25°C° 0 mm 4 mps 723 mmHg 85%
    04:00 +25°C° 0 mm 4 mps 723 mmHg 86%
    05:00 +25°C° 0 mm 4 mps 723 mmHg 87%
    06:00 +26°C° 0 mm 4 mps 723 mmHg 83%
    07:00 +26°C° 0 mm 4 mps 723 mmHg 80%
    08:00 +27°C° 0 mm 5 mps 724 mmHg 73%
    09:00 +29°C° 0 mm 5 mps 724 mmHg 66%
    10:00 +32°C° 0 mm 5 mps 724 mmHg 59%
    11:00 +34°C° 0 mm 5 mps 724 mmHg 51%
    12:00 +35°C° 0 mm 5 mps 723 mmHg 48%
    13:00 +36°C° 0 mm 5 mps 722 mmHg 45%
    14:00 +37°C° 0 mm 5 mps 721 mmHg 42%
    15:00 +37°C° 0 mm 5 mps 721 mmHg 42%
    16:00 +37°C° 0 mm 5 mps 720 mmHg 43%
    17:00 +37°C° 0 mm 4 mps 720 mmHg 44%
    18:00 +35°C° 0 mm 4 mps 720 mmHg 50%
    19:00 +33°C° 0 mm 3 mps 720 mmHg 56%
    20:00 +30°C° 0 mm 2 mps 721 mmHg 62%
    21:00 +30°C° 0 mm 2 mps 721 mmHg 64%
    22:00 +29°C° 0 mm 2 mps 722 mmHg 66%
    23:00 +29°C° 0 mm 2 mps 722 mmHg 68%

    Tomorrow, 24 January, Thursday

    Time Temperature Precipitation Wind Pressure Humidity
    00:00 +28°C° 0 mm 2 mps 722 mmHg 68%
    01:00 +28°C° 0 mm 2 mps 722 mmHg 68%
    02:00 +28°C° 0 mm 3 mps 722 mmHg 68%
    03:00 +28°C° 0 mm 3 mps 722 mmHg 70%
    04:00 +28°C° 0 mm 3 mps 722 mmHg 71%
    05:00 +27°C° 0 mm 2 mps 722 mmHg 73%
    06:00 +29°C° 0 mm 3 mps 723 mmHg 68%
    07:00 +30°C° 0 mm 3 mps 723 mmHg 64%
    08:00 +32°C° 0 mm 4 mps 724 mmHg 59%
    09:00 +34°C° 0 mm 4 mps 724 mmHg 52%
    10:00 +36°C° 0 mm 4 mps 724 mmHg 45%
    11:00 +38°C° 0 mm 4 mps 724 mmHg 39%
    12:00 +38°C° 0 mm 4 mps 723 mmHg 37%
    13:00 +40°C° 0 mm 4 mps 722 mmHg 35%
    14:00 +41°C° 0 mm 4 mps 721 mmHg 33%
    15:00 +41°C° 0 mm 4 mps 721 mmHg 34%
    16:00 +40°C° 0 mm 4 mps 720 mmHg 36%
    17:00 +39°C° 0 mm 3 mps 720 mmHg 37%
    18:00 +37°C° 0 mm 3 mps 720 mmHg 44%
    19:00 +34°C° 0 mm 2 mps 720 mmHg 50%
    20:00 +31°C° 0 mm 1 mps 721 mmHg 56%
    21:00 +31°C° 0 mm 2 mps 721 mmHg 58%
    22:00 +30°C° 0 mm 2 mps 722 mmHg 60%
    23:00 +30°C° 0 mm 2 mps 722 mmHg 62%

    Day after tomorrow, 25 January, Friday

    Time Temperature Precipitation Wind Pressure Humidity
    00:00 +29°C° 0 mm 2 mps 722 mmHg 62%
    01:00 +29°C° 0 mm 2 mps 722 mmHg 61%
    02:00 +29°C° 0 mm 3 mps 721 mmHg 60%
    03:00 +29°C° 0 mm 3 mps 721 mmHg 62%
    04:00 +28°C° 0 mm 2 mps 721 mmHg 64%
    05:00 +28°C° 0 mm 2 mps 721 mmHg 66%
    06:00 +29°C° 0 mm 3 mps 722 mmHg 62%
    07:00 +30°C° 0 mm 3 mps 722 mmHg 58%
    08:00 +31°C° 0 mm 3 mps 722 mmHg 54%
    09:00 +34°C° 0 mm 4 mps 722 mmHg 49%
    10:00 +36°C° 0 mm 4 mps 723 mmHg 43%
    11:00 +39°C° 0 mm 5 mps 723 mmHg 37%
    12:00 +40°C° 0 mm 5 mps 722 mmHg 36%
    13:00 +41°C° 0 mm 5 mps 721 mmHg 34%
    14:00 +42°C° 0 mm 5 mps 720 mmHg 32%
    15:00 +41°C° 0 mm 4 mps 719 mmHg 34%
    16:00 +41°C° 0 mm 4 mps 719 mmHg 35%
    17:00 +40°C° 0 mm 4 mps 718 mmHg 36%
    18:00 +37°C° 0 mm 3 mps 718 mmHg 42%
    19:00 +35°C° 0 mm 2 mps 719 mmHg 48%
    20:00 +32°C° 0 mm 1 mps 719 mmHg 54%
    21:00 +31°C° 0 mm 1 mps 720 mmHg 56%
    22:00 +30°C° 0 mm 1 mps 720 mmHg 58%
    23:00 +30°C° 0 mm 2 mps 721 mmHg 60%

    26 January, Saturday

    Time Temperature Precipitation Wind Pressure Humidity
    00:00 +30°C° 0 mm 2 mps 721 mmHg 60%
    01:00 +30°C° 0 mm 3 mps 720 mmHg 60%
    02:00 +30°C° 0 mm 3 mps 720 mmHg 60%
    03:00 +29°C° 0 mm 3 mps 720 mmHg 62%
    04:00 +29°C° 0 mm 3 mps 720 mmHg 64%
    05:00 +28°C° 0 mm 3 mps 720 mmHg 67%
    06:00 +29°C° 0 mm 4 mps 721 mmHg 65%
    07:00 +30°C° 0 mm 4 mps 721 mmHg 64%
    08:00 +30°C° 0 mm 4 mps 722 mmHg 63%
    09:00 +33°C° 0 mm 5 mps 722 mmHg 57%
    10:00 +35°C° 0 mm 5 mps 722 mmHg 52%
    11:00 +37°C° 0 mm 5 mps 722 mmHg 46%
    12:00 +39°C° 0 mm 5 mps 721 mmHg 43%
    13:00 +40°C° 0 mm 5 mps 720 mmHg 40%
    14:00 +41°C° 0 mm 5 mps 719 mmHg 37%
    15:00 +40°C° 0 mm 4 mps 719 mmHg 37%
    16:00 +40°C° 0 mm 4 mps 718 mmHg 38%
    17:00 +40°C° 0 mm 4 mps 718 mmHg 38%
    18:00 +37°C° 0 mm 3 mps 718 mmHg 44%
    19:00 +35°C° 0 mm 2 mps 719 mmHg 50%
    20:00 +32°C° 0 mm 1 mps 719 mmHg 56%
    21:00 +31°C° 0 mm 1 mps 720 mmHg 58%
    22:00 +30°C° 0 mm 2 mps 720 mmHg 60%
    23:00 +30°C° 0 mm 2 mps 721 mmHg 63%

    27 January, Sunday

    Time Temperature Precipitation Wind Pressure Humidity
    00:00 +29°C° 0.1 mm 2 mps 721 mmHg 64%
    01:00 +29°C° 0.1 mm 3 mps 721 mmHg 66%
    02:00 +29°C° 0.1 mm 3 mps 720 mmHg 68%
    03:00 +28°C° 0.2 mm 3 mps 720 mmHg 73%
    04:00 +27°C° 0.2 mm 2 mps 720 mmHg 77%
    05:00 +27°C° 0.2 mm 2 mps 720 mmHg 82%
    06:00 +27°C° 0.4 mm 2 mps 721 mmHg 80%
    07:00 +28°C° 0.4 mm 1 mps 721 mmHg 78%
    08:00 +29°C° 0.4 mm 1 mps 722 mmHg 76%
    09:00 +31°C° 0.1 mm 1 mps 722 mmHg 67%
    10:00 +34°C° 0.1 mm 1 mps 722 mmHg 58%
    11:00 +36°C° 0.1 mm 1 mps 722 mmHg 49%
    12:00 +38°C° 0 mm 2 mps 722 mmHg 45%
    13:00 +39°C° 0 mm 2 mps 721 mmHg 41%
    14:00 +40°C° 0 mm 2 mps 720 mmHg 37%
    15:00 +39°C° 0 mm 2 mps 719 mmHg 39%
    16:00 +37°C° 0 mm 1 mps 719 mmHg 41%
    17:00 +36°C° 0 mm 1 mps 718 mmHg 44%
    18:00 +35°C° 0 mm 1 mps 718 mmHg 48%
    19:00 +33°C° 0 mm 1 mps 718 mmHg 53%
    20:00 +32°C° 0 mm 1 mps 719 mmHg 58%
    21:00 +30°C° 2 mm 1 mps 719 mmHg 68%
    22:00 +28°C° 2 mm 2 mps 720 mmHg 78%
    23:00 +27°C° 2 mm 2 mps 720 mmHg 88%

    28 January, Monday

    Time Temperature Precipitation Wind Pressure Humidity
    00:00 +27°C° 2.4 mm 1 mps 720 mmHg 89%
    01:00 +26°C° 2.4 mm 1 mps 720 mmHg 91%
    02:00 +26°C° 2.4 mm 1 mps 720 mmHg 92%
    03:00 +25°C° 2.6 mm 1 mps 720 mmHg 93%
    04:00 +25°C° 2.6 mm 1 mps 720 mmHg 94%
    05:00 +25°C° 2.6 mm 1 mps 720 mmHg 95%
    06:00 +26°C° 0.2 mm 1 mps 721 mmHg 92%
    07:00 +25°C° 0.2 mm 0 mps 722 mmHg 90%
    08:00 +25°C° 0.2 mm 0 mps 722 mmHg 87%
    09:00 +30°C° 0.1 mm 1 mps 722 mmHg 74%
    10:00 +33°C° 0.1 mm 1 mps 722 mmHg 62%
    11:00 +35°C° 0.1 mm 1 mps 722 mmHg 49%
    12:00 +37°C° 0 mm 2 mps 721 mmHg 45%
    13:00 +38°C° 0 mm 2 mps 721 mmHg 41%
    14:00 +39°C° 0 mm 2 mps 720 mmHg 37%
    15:00 +38°C° 0 mm 2 mps 720 mmHg 40%
    16:00 +37°C° 0 mm 3 mps 719 mmHg 44%
    17:00 +36°C° 0 mm 3 mps 719 mmHg 47%
    18:00 +34°C° 0 mm 2 mps 719 mmHg 54%
    19:00 +32°C° 0 mm 2 mps 720 mmHg 60%
    20:00 +30°C° 0 mm 2 mps 720 mmHg 66%
    21:00 +28°C° 2.4 mm 2 mps 721 mmHg 76%
    22:00 +27°C° 2.4 mm 2 mps 721 mmHg 85%
    23:00 +25°C° 2.4 mm 1 mps 722 mmHg 95%
    Show more